Stündliche Wetter Allendorf

Heute, 16 Juni, Mittwoch

Zeit Temperatur Niederschläge Wind Luftdruck Luftfeuchtigkeit
00:00 +14°C° 0 mm 1 m/S 730 mmHg 94%
01:00 +13°C° 0 mm 1 m/S 730 mmHg 94%
02:00 +13°C° 0 mm 1 m/S 730 mmHg 94%
03:00 +13°C° 0 mm 1 m/S 729 mmHg 94%
04:00 +13°C° 0 mm 1 m/S 729 mmHg 94%
05:00 +15°C° 0 mm 1 m/S 729 mmHg 89%
06:00 +16°C° 0 mm 1 m/S 729 mmHg 84%
07:00 +19°C° 0 mm 1 m/S 729 mmHg 79%
08:00 +21°C° 0 mm 1 m/S 729 mmHg 74%
09:00 +23°C° 0 mm 2 m/S 729 mmHg 69%
10:00 +25°C° 0 mm 2 m/S 729 mmHg 64%
11:00 +26°C° 0.1 mm 2 m/S 729 mmHg 60%
12:00 +27°C° 0.1 mm 2 m/S 728 mmHg 57%
13:00 +28°C° 0.1 mm 2 m/S 728 mmHg 54%
14:00 +28°C° 0 mm 2 m/S 728 mmHg 54%
15:00 +28°C° 0 mm 2 m/S 727 mmHg 53%
16:00 +28°C° 0 mm 2 m/S 727 mmHg 53%
17:00 +27°C° 0 mm 2 m/S 727 mmHg 60%
18:00 +26°C° 0 mm 2 m/S 727 mmHg 66%
19:00 +25°C° 0 mm 2 m/S 727 mmHg 73%
20:00 +24°C° 0 mm 1 m/S 727 mmHg 78%
21:00 +22°C° 0 mm 1 m/S 727 mmHg 83%
22:00 +20°C° 0 mm 1 m/S 727 mmHg 88%
23:00 +20°C° 0 mm 1 m/S 727 mmHg 89%

Morgen, 17 Juni, Donnerstag

Zeit Temperatur Niederschläge Wind Luftdruck Luftfeuchtigkeit
00:00 +19°C° 0 mm 1 m/S 727 mmHg 90%
01:00 +19°C° 0 mm 1 m/S 727 mmHg 91%
02:00 +18°C° 0 mm 1 m/S 726 mmHg 91%
03:00 +18°C° 0 mm 1 m/S 726 mmHg 91%
04:00 +18°C° 0 mm 1 m/S 726 mmHg 92%
05:00 +19°C° 0 mm 1 m/S 726 mmHg 86%
06:00 +21°C° 0 mm 1 m/S 726 mmHg 81%
07:00 +21°C° 0 mm 2 m/S 727 mmHg 75%
08:00 +24°C° 0 mm 2 m/S 727 mmHg 68%
09:00 +26°C° 0 mm 3 m/S 727 mmHg 61%
10:00 +28°C° 0 mm 4 m/S 727 mmHg 54%
11:00 +29°C° 0 mm 4 m/S 727 mmHg 52%
12:00 +30°C° 0 mm 4 m/S 727 mmHg 50%
13:00 +30°C° 0 mm 4 m/S 727 mmHg 47%
14:00 +31°C° 0 mm 3 m/S 727 mmHg 48%
15:00 +31°C° 0 mm 3 m/S 727 mmHg 48%
16:00 +31°C° 0 mm 3 m/S 727 mmHg 48%
17:00 +30°C° 0.1 mm 2 m/S 726 mmHg 57%
18:00 +29°C° 0.1 mm 1 m/S 726 mmHg 66%
19:00 +27°C° 0.1 mm 1 m/S 726 mmHg 75%
20:00 +25°C° 0 mm 1 m/S 726 mmHg 79%
21:00 +24°C° 0 mm 1 m/S 726 mmHg 83%
22:00 +22°C° 0 mm 1 m/S 726 mmHg 87%
23:00 +22°C° 0 mm 1 m/S 726 mmHg 88%

übermorgen, 18 Juni, Freitag

Zeit Temperatur Niederschläge Wind Luftdruck Luftfeuchtigkeit
00:00 +21°C° 0 mm 1 m/S 726 mmHg 90%
01:00 +21°C° 0 mm 1 m/S 726 mmHg 92%
02:00 +20°C° 0 mm 1 m/S 726 mmHg 92%
03:00 +20°C° 0 mm 1 m/S 726 mmHg 93%
04:00 +20°C° 0 mm 1 m/S 726 mmHg 93%
05:00 +21°C° 0.4 mm 1 m/S 726 mmHg 92%
06:00 +22°C° 0.4 mm 1 m/S 727 mmHg 91%
07:00 +23°C° 0.4 mm 1 m/S 727 mmHg 90%
08:00 +24°C° 0.2 mm 1 m/S 727 mmHg 82%
09:00 +26°C° 0.2 mm 1 m/S 727 mmHg 75%
10:00 +28°C° 0.2 mm 2 m/S 727 mmHg 67%
11:00 +29°C° 0.3 mm 2 m/S 727 mmHg 60%
12:00 +30°C° 0.3 mm 2 m/S 727 mmHg 54%
13:00 +31°C° 0.3 mm 2 m/S 727 mmHg 47%
14:00 +32°C° 0 mm 2 m/S 727 mmHg 45%
15:00 +33°C° 0 mm 3 m/S 726 mmHg 43%
16:00 +33°C° 0 mm 3 m/S 726 mmHg 41%
17:00 +30°C° 0.1 mm 3 m/S 726 mmHg 50%
18:00 +28°C° 0.1 mm 3 m/S 726 mmHg 60%
19:00 +26°C° 0.1 mm 3 m/S 726 mmHg 69%
20:00 +24°C° 0.5 mm 2 m/S 727 mmHg 76%
21:00 +23°C° 0.5 mm 2 m/S 727 mmHg 83%
22:00 +21°C° 0.5 mm 1 m/S 728 mmHg 90%
23:00 +21°C° 0 mm 1 m/S 728 mmHg 91%

19 Juni, Samstag

Zeit Temperatur Niederschläge Wind Luftdruck Luftfeuchtigkeit
00:00 +19°C° 0 mm 2 m/S 728 mmHg 92%
01:00 +19°C° 0 mm 2 m/S 728 mmHg 93%
02:00 +18°C° 0 mm 2 m/S 728 mmHg 93%
03:00 +18°C° 0 mm 2 m/S 728 mmHg 93%
04:00 +17°C° 0 mm 2 m/S 728 mmHg 93%
05:00 +18°C° 0 mm 2 m/S 728 mmHg 88%
06:00 +19°C° 0 mm 2 m/S 729 mmHg 84%
07:00 +19°C° 0 mm 3 m/S 729 mmHg 79%
08:00 +21°C° 0 mm 3 m/S 729 mmHg 69%
09:00 +22°C° 0 mm 3 m/S 730 mmHg 59%
10:00 +25°C° 0 mm 3 m/S 730 mmHg 50%
11:00 +26°C° 0 mm 2 m/S 730 mmHg 46%
12:00 +27°C° 0 mm 2 m/S 730 mmHg 43%
13:00 +28°C° 0 mm 2 m/S 730 mmHg 39%
14:00 +29°C° 0 mm 2 m/S 729 mmHg 40%
15:00 +29°C° 0 mm 2 m/S 729 mmHg 40%
16:00 +29°C° 0 mm 1 m/S 729 mmHg 41%
17:00 +27°C° 0 mm 2 m/S 729 mmHg 51%
18:00 +26°C° 0 mm 2 m/S 728 mmHg 60%
19:00 +24°C° 0 mm 2 m/S 728 mmHg 70%
20:00 +21°C° 0 mm 2 m/S 728 mmHg 74%
21:00 +20°C° 0 mm 2 m/S 728 mmHg 79%
22:00 +18°C° 0 mm 2 m/S 728 mmHg 83%
23:00 +19°C° 0 mm 2 m/S 727 mmHg 84%

20 Juni, Sonntag

Zeit Temperatur Niederschläge Wind Luftdruck Luftfeuchtigkeit
00:00 +19°C° 0 mm 3 m/S 727 mmHg 84%
01:00 +19°C° 0 mm 3 m/S 726 mmHg 85%
02:00 +19°C° 0 mm 3 m/S 726 mmHg 87%
03:00 +19°C° 0 mm 2 m/S 725 mmHg 90%
04:00 +19°C° 0 mm 2 m/S 725 mmHg 92%
05:00 +20°C° 0 mm 2 m/S 725 mmHg 87%
06:00 +23°C° 0 mm 2 m/S 725 mmHg 82%
07:00 +24°C° 0 mm 2 m/S 725 mmHg 77%
08:00 +25°C° 0 mm 2 m/S 725 mmHg 72%
09:00 +27°C° 0 mm 2 m/S 725 mmHg 67%
10:00 +28°C° 0 mm 3 m/S 725 mmHg 62%
11:00 +29°C° 0 mm 2 m/S 724 mmHg 58%
12:00 +30°C° 0 mm 2 m/S 724 mmHg 54%
13:00 +31°C° 0 mm 2 m/S 724 mmHg 50%
14:00 +29°C° 0.6 mm 3 m/S 724 mmHg 60%
15:00 +27°C° 0.6 mm 4 m/S 724 mmHg 71%
16:00 +23°C° 0.6 mm 5 m/S 724 mmHg 81%
17:00 +22°C° 1.7 mm 4 m/S 724 mmHg 86%
18:00 +20°C° 1.7 mm 3 m/S 725 mmHg 91%
19:00 +19°C° 1.7 mm 2 m/S 725 mmHg 96%
20:00 +18°C° 0.3 mm 2 m/S 725 mmHg 97%
21:00 +18°C° 0.3 mm 1 m/S 725 mmHg 97%
22:00 +18°C° 0.3 mm 1 m/S 725 mmHg 98%
23:00 +18°C° 0 mm 1 m/S 725 mmHg 98%

21 Juni, Montag

Zeit Temperatur Niederschläge Wind Luftdruck Luftfeuchtigkeit
00:00 +18°C° 0 mm 1 m/S 725 mmHg 98%
01:00 +18°C° 0 mm 1 m/S 725 mmHg 97%
02:00 +18°C° 0 mm 1 m/S 725 mmHg 98%
03:00 +18°C° 0 mm 1 m/S 725 mmHg 98%
04:00 +18°C° 0 mm 1 m/S 725 mmHg 98%
05:00 +18°C° 0 mm 1 m/S 725 mmHg 98%
06:00 +18°C° 0 mm 1 m/S 725 mmHg 97%
07:00 +18°C° 0 mm 1 m/S 725 mmHg 97%
08:00 +19°C° 0.1 mm 1 m/S 725 mmHg 92%
09:00 +19°C° 0.1 mm 1 m/S 725 mmHg 88%
10:00 +19°C° 0.1 mm 2 m/S 725 mmHg 83%
11:00 +19°C° 0.4 mm 1 m/S 726 mmHg 85%
12:00 +19°C° 0.4 mm 1 m/S 726 mmHg 87%
13:00 +19°C° 0.4 mm 1 m/S 726 mmHg 90%
14:00 +18°C° 1.8 mm 1 m/S 726 mmHg 91%
15:00 +18°C° 1.8 mm 1 m/S 726 mmHg 92%
16:00 +18°C° 1.8 mm 1 m/S 726 mmHg 93%
17:00 +19°C° 0 mm 1 m/S 726 mmHg 91%
18:00 +18°C° 0 mm 2 m/S 726 mmHg 90%
19:00 +18°C° 0 mm 2 m/S 726 mmHg 88%
20:00 +17°C° 0 mm 2 m/S 726 mmHg 91%
21:00 +16°C° 0 mm 1 m/S 726 mmHg 93%
22:00 +15°C° 0 mm 1 m/S 726 mmHg 96%
23:00 +14°C° 0 mm 1 m/S 726 mmHg 96%
Mehr zeigen

Wir brauchen deine Erlaubnis

Meteoprog und unser Service Anbieter werden persönliche Daten aufbewahren, so wie Cookies, Geräte Bezeichnung oder ähnliche Technologien von deinem Gerät und Prozess, so wie Persönliche Daten Inhalte und Werbungen, genauso wie social Media und den Verkehr zu analysieren.

  • Aufbewahrung und/oder Zugang zu deiner Geräte Informationen.

    Cookies, Geräte Bezeichnung oder andere Informationen, können aufbewahrt oder Zugang zu deinem Gerät erhalten, für den Grund, der oben angegeben wird.

  • Personalisierte Werbung und Inhalte, Messungen, Einblick in das Publikum und Produkt Entwicklung.

    Werbungen und Inhalte können personalisiert werden, basierend auf ein Profil. Mehr Daten können besser personalisierte Werbungen und Inhalte hinzufügen. Werbung und Inhalte können gezeigt und gemessen werden. Einblicke über das Publikum, welche die Werbung gesehen haben und den Inhalt, können abgeleitet werden. So wie Daten können genutzt werden, um es zu verbessern oder die Benutzer Erfahrung zu verbessern das System und die Software.

Wenn du “Ich stimme zu” klickst, erlaubst du uns, die Cookies zu benutzen die Geräte Bezeichnung, den Web oder ähnliche Technologien zu benutzen. Deine Settings, können in deinem Gerät bei deinem Browser geändert werden.

Für den bestimmten Zweck, berechtigten Interessen beruhen darauf, mehr als auf den Inhalt. Du kannst mehr darüber in unseren Privaten und Cookie Politik lesen.